Torna al catalogo

ELEKTRON 3 DEB

AttivoHEO
NORAD 29008·DEBRIS·🇷🇺 Russia

Lanciato Jul 10, 1964 da Baikonur Cosmodrome

Loading…

Prossimi Passaggi (prossime 24 ore)

TLE

In scadenzaSource: Space-Track

Epoca: Sep 3, 2026, 22:32 UTC

1 29008U 64038G   26246.93930326  .00000755  00000-0  18883-3 0  9993
2 29008  60.8350  27.5610 2866111  55.9981 328.1046  9.37977620739346

Traccia ELEKTRON 3 DEB in tempo reale con AllMySat

Download on the App Store